Time,TemperatureF,DewpointF,PressureIn,WindDirection,WindDirectionDegrees,WindSpeedMPH,WindSpeedGustMPH,Humidity,HourlyPrecipIn,Conditions,Clouds,dailyrainin,SoftwareType,DateUTC
2013-02-24 00:02:00,32.1,30.0,30.04,SSE,160,5.0,5.0,92,0.00,,,0.00,weatherlink.com 1.10,2013-02-24 05:02:00,
2013-02-24 00:17:00,32.1,30.0,30.04,ESE,121,2.0,4.0,92,0.00,,,0.00,weatherlink.com 1.10,2013-02-24 05:17:00,
2013-02-24 00:32:00,31.8,30.0,30.02,ESE,122,1.0,5.0,93,0.00,,,0.00,weatherlink.com 1.10,2013-02-24 05:32:00,
2013-02-24 00:47:00,31.6,30.0,30.01,ESE,116,2.0,6.0,93,0.00,,,0.00,weatherlink.com 1.10,2013-02-24 05:47:00,
2013-02-24 01:02:00,31.6,30.0,30.00,ESE,120,2.0,5.0,94,0.00,,,0.00,weatherlink.com 1.10,2013-02-24 06:02:00,
2013-02-24 01:17:00,31.6,30.0,30.00,East,96,3.0,4.0,94,0.00,,,0.00,weatherlink.com 1.10,2013-02-24 06:17:00,
2013-02-24 01:33:00,31.6,30.0,30.01,ESE,107,4.0,4.0,94,0.00,,,0.00,weatherlink.com 1.10,2013-02-24 06:33:00,
2013-02-24 01:48:00,31.6,30.0,30.00,East,99,2.0,5.0,94,0.00,,,0.00,weatherlink.com 1.10,2013-02-24 06:48:00,
2013-02-24 02:04:00,31.7,31.0,29.99,East,101,4.0,6.0,95,0.00,,,0.00,weatherlink.com 1.10,2013-02-24 07:04:00,
2013-02-24 02:18:00,31.7,31.0,29.98,ESE,104,4.0,6.0,95,0.00,,,0.00,weatherlink.com 1.10,2013-02-24 07:18:00,
2013-02-24 02:34:00,31.6,30.0,29.97,SE,131,3.0,5.0,95,0.00,,,0.00,weatherlink.com 1.10,2013-02-24 07:34:00,
2013-02-24 02:48:00,31.6,30.0,29.96,ESE,110,5.0,7.0,95,0.00,,,0.00,weatherlink.com 1.10,2013-02-24 07:48:00,
2013-02-24 03:03:00,31.5,30.0,29.96,ESE,112,3.0,5.0,95,0.00,,,0.00,weatherlink.com 1.10,2013-02-24 08:03:00,
2013-02-24 03:18:00,31.5,30.0,29.95,ESE,109,4.0,7.0,95,0.00,,,0.00,weatherlink.com 1.10,2013-02-24 08:18:00,
2013-02-24 03:33:00,31.5,31.0,29.95,East,91,3.0,7.0,96,0.00,,,0.00,weatherlink.com 1.10,2013-02-24 08:33:00,
2013-02-24 03:48:00,31.4,30.0,29.95,ESE,108,4.0,8.0,96,0.00,,,0.00,weatherlink.com 1.10,2013-02-24 08:48:00,
2013-02-24 04:03:00,31.4,30.0,29.94,ESE,113,5.0,6.0,96,0.00,,,0.00,weatherlink.com 1.10,2013-02-24 09:03:00,
2013-02-24 04:18:00,31.3,30.0,29.93,ESE,114,4.0,9.0,96,0.00,,,0.00,weatherlink.com 1.10,2013-02-24 09:18:00,
2013-02-24 04:33:00,31.3,30.0,29.93,East,101,4.0,7.0,96,0.00,,,0.00,weatherlink.com 1.10,2013-02-24 09:33:00,
2013-02-24 04:48:00,31.3,30.0,29.92,ESE,119,3.0,8.0,96,0.00,,,0.00,weatherlink.com 1.10,2013-02-24 09:48:00,
2013-02-24 05:03:00,31.3,30.0,29.91,ESE,121,5.0,9.0,96,0.00,,,0.00,weatherlink.com 1.10,2013-02-24 10:03:00,
2013-02-24 05:18:00,31.3,30.0,29.91,ESE,117,4.0,7.0,96,0.00,,,0.00,weatherlink.com 1.10,2013-02-24 10:18:00,
2013-02-24 05:33:00,31.2,30.0,29.90,ESE,113,2.0,7.0,96,0.00,,,0.00,weatherlink.com 1.10,2013-02-24 10:33:00,
2013-02-24 05:48:00,31.2,30.0,29.90,East,101,3.0,7.0,96,0.00,,,0.00,weatherlink.com 1.10,2013-02-24 10:48:00,
2013-02-24 06:03:00,31.1,30.0,29.91,ESE,108,3.0,6.0,96,0.00,,,0.00,weatherlink.com 1.10,2013-02-24 11:03:00,
2013-02-24 06:18:00,31.0,30.0,29.91,East,91,4.0,6.0,96,0.00,,,0.00,weatherlink.com 1.10,2013-02-24 11:18:00,
2013-02-24 06:33:00,31.0,30.0,29.90,East,96,5.0,6.0,96,0.00,,,0.00,weatherlink.com 1.10,2013-02-24 11:33:00,
2013-02-24 06:48:00,30.9,30.0,29.90,ESE,103,4.0,5.0,96,0.00,,,0.00,weatherlink.com 1.10,2013-02-24 11:48:00,
2013-02-24 07:03:00,30.8,30.0,29.90,ESE,102,4.0,6.0,96,0.00,,,0.00,weatherlink.com 1.10,2013-02-24 12:03:00,
2013-02-24 07:18:00,30.7,30.0,29.90,East,95,5.0,6.0,96,0.00,,,0.00,weatherlink.com 1.10,2013-02-24 12:18:00,
2013-02-24 07:33:00,30.8,30.0,29.90,East,84,6.0,6.0,97,0.00,,,0.00,weatherlink.com 1.10,2013-02-24 12:33:00,
2013-02-24 07:48:00,30.9,30.0,29.89,East,84,4.0,6.0,97,0.00,,,0.00,weatherlink.com 1.10,2013-02-24 12:48:00,
2013-02-24 08:03:00,31.0,30.0,29.89,East,83,4.0,6.0,97,0.00,,,0.00,weatherlink.com 1.10,2013-02-24 13:03:00,
2013-02-24 08:18:00,31.1,30.0,29.89,East,87,3.0,6.0,97,0.00,,,0.00,weatherlink.com 1.10,2013-02-24 13:18:00,
2013-02-24 08:33:00,31.3,31.0,29.88,East,95,4.0,6.0,97,0.00,,,0.00,weatherlink.com 1.10,2013-02-24 13:33:00,
2013-02-24 08:48:00,31.3,31.0,29.87,East,91,5.0,8.0,97,0.00,,,0.00,weatherlink.com 1.10,2013-02-24 13:48:00,
2013-02-24 09:03:00,31.4,31.0,29.87,East,100,5.0,7.0,97,0.00,,,0.00,weatherlink.com 1.10,2013-02-24 14:03:00,
2013-02-24 09:18:00,31.5,31.0,29.86,ESE,105,4.0,7.0,97,0.00,,,0.00,weatherlink.com 1.10,2013-02-24 14:18:00,
2013-02-24 09:33:00,31.5,31.0,29.86,East,94,3.0,7.0,97,0.00,,,0.00,weatherlink.com 1.10,2013-02-24 14:33:00,
2013-02-24 09:48:00,31.4,31.0,29.86,East,100,4.0,6.0,97,0.00,,,0.00,weatherlink.com 1.10,2013-02-24 14:48:00,
2013-02-24 10:03:00,31.4,31.0,29.85,ESE,104,6.0,7.0,97,0.00,,,0.00,weatherlink.com 1.10,2013-02-24 15:03:00,
2013-02-24 10:19:00,31.4,31.0,29.84,East,84,6.0,8.0,97,0.00,,,0.00,weatherlink.com 1.10,2013-02-24 15:19:00,
2013-02-24 10:34:00,31.4,31.0,29.84,ESE,105,5.0,8.0,97,0.00,,,0.00,weatherlink.com 1.10,2013-02-24 15:34:00,
2013-02-24 10:49:00,31.3,31.0,29.83,East,100,4.0,10.0,97,0.00,,,0.00,weatherlink.com 1.10,2013-02-24 15:49:00,
2013-02-24 11:04:00,31.2,31.0,29.82,East,87,5.0,8.0,97,0.00,,,0.00,weatherlink.com 1.10,2013-02-24 16:04:00,
2013-02-24 11:19:00,31.2,31.0,29.82,East,86,4.0,7.0,97,0.00,,,0.00,weatherlink.com 1.10,2013-02-24 16:19:00,
2013-02-24 11:34:00,31.1,30.0,29.81,SSE,152,5.0,8.0,97,0.00,,,0.00,weatherlink.com 1.10,2013-02-24 16:34:00,
2013-02-24 11:49:00,31.0,30.0,29.80,SSE,148,4.0,9.0,97,0.00,,,0.00,weatherlink.com 1.10,2013-02-24 16:49:00,
2013-02-24 12:04:00,30.9,30.0,29.80,SSE,161,6.0,9.0,97,0.00,,,0.00,weatherlink.com 1.10,2013-02-24 17:04:00,
2013-02-24 12:19:00,30.8,30.0,29.79,SE,141,4.0,10.0,97,0.00,,,0.00,weatherlink.com 1.10,2013-02-24 17:19:00,
2013-02-24 12:34:00,30.8,30.0,29.79,SSE,149,6.0,8.0,97,0.00,,,0.00,weatherlink.com 1.10,2013-02-24 17:34:00,
2013-02-24 12:49:00,30.7,30.0,29.79,SSE,150,7.0,8.0,97,0.00,,,0.00,weatherlink.com 1.10,2013-02-24 17:49:00,
2013-02-24 13:04:00,30.6,30.0,29.78,SE,144,6.0,10.0,96,0.00,,,0.00,weatherlink.com 1.10,2013-02-24 18:04:00,
2013-02-24 13:19:00,30.5,30.0,29.78,SE,132,4.0,9.0,97,0.00,,,0.00,weatherlink.com 1.10,2013-02-24 18:19:00,
2013-02-24 13:35:00,30.3,29.0,29.78,SE,132,5.0,7.0,96,0.00,,,0.00,weatherlink.com 1.10,2013-02-24 18:35:00,
2013-02-24 13:49:00,30.2,29.0,29.78,ESE,117,9.0,9.0,96,0.00,,,0.00,weatherlink.com 1.10,2013-02-24 18:49:00,
2013-02-24 14:04:00,30.0,29.0,29.78,SE,142,8.0,8.0,97,0.00,,,0.00,weatherlink.com 1.10,2013-02-24 19:04:00,
2013-02-24 14:19:00,30.0,29.0,29.78,SE,131,2.0,5.0,97,0.00,,,0.00,weatherlink.com 1.10,2013-02-24 19:19:00,
2013-02-24 14:34:00,30.1,29.0,29.78,SE,127,4.0,5.0,97,0.00,,,0.00,weatherlink.com 1.10,2013-02-24 19:34:00,
2013-02-24 14:49:00,29.8,29.0,29.78,SE,136,4.0,7.0,97,0.00,,,0.00,weatherlink.com 1.10,2013-02-24 19:49:00,
2013-02-24 15:04:00,29.7,29.0,29.78,SE,132,4.0,5.0,97,0.00,,,0.00,weatherlink.com 1.10,2013-02-24 20:04:00,
2013-02-24 15:19:00,29.6,29.0,29.78,SE,131,2.0,5.0,97,0.00,,,0.00,weatherlink.com 1.10,2013-02-24 20:19:00,
2013-02-24 15:34:00,29.6,29.0,29.78,SE,136,1.0,4.0,97,0.00,,,0.00,weatherlink.com 1.10,2013-02-24 20:34:00,
2013-02-24 15:49:00,29.6,29.0,29.78,SE,145,2.0,4.0,97,0.00,,,0.00,weatherlink.com 1.10,2013-02-24 20:49:00,
2013-02-24 16:04:00,29.6,29.0,29.78,SE,136,4.0,4.0,97,0.00,,,0.00,weatherlink.com 1.10,2013-02-24 21:04:00,
2013-02-24 16:19:00,29.6,29.0,29.78,SE,139,3.0,5.0,97,0.00,,,0.00,weatherlink.com 1.10,2013-02-24 21:19:00,
2013-02-24 16:34:00,29.3,29.0,29.78,SSE,155,6.0,10.0,97,0.00,,,0.00,weatherlink.com 1.10,2013-02-24 21:34:00,
2013-02-24 16:49:00,29.1,28.0,29.78,SSE,149,4.0,7.0,97,0.00,,,0.00,weatherlink.com 1.10,2013-02-24 21:49:00,
2013-02-24 17:04:00,28.9,28.0,29.78,SE,141,6.0,7.0,97,0.00,,,0.00,weatherlink.com 1.10,2013-02-24 22:04:00,
2013-02-24 17:19:00,28.8,28.0,29.78,SSE,163,4.0,5.0,97,0.00,,,0.00,weatherlink.com 1.10,2013-02-24 22:19:00,
2013-02-24 17:34:00,28.8,28.0,29.79,SE,143,2.0,5.0,97,0.00,,,0.00,weatherlink.com 1.10,2013-02-24 22:34:00,
2013-02-24 17:49:00,28.9,28.0,29.79,SE,142,3.0,8.0,97,0.00,,,0.00,weatherlink.com 1.10,2013-02-24 22:49:00,
2013-02-24 18:04:00,28.9,28.0,29.80,SE,138,3.0,6.0,97,0.00,,,0.00,weatherlink.com 1.10,2013-02-24 23:04:00,
2013-02-24 18:19:00,28.9,28.0,29.80,SE,136,3.0,3.0,97,0.00,,,0.00,weatherlink.com 1.10,2013-02-24 23:19:00,
2013-02-24 18:34:00,28.9,28.0,29.80,SE,136,2.0,4.0,97,0.00,,,0.00,weatherlink.com 1.10,2013-02-24 23:34:00,
2013-02-24 18:49:00,28.8,28.0,29.81,SE,146,4.0,7.0,97,0.00,,,0.00,weatherlink.com 1.10,2013-02-24 23:49:00,
2013-02-24 19:04:00,28.5,28.0,29.82,SE,135,3.0,9.0,97,0.00,,,0.00,weatherlink.com 1.10,2013-02-25 00:04:00,
2013-02-24 19:19:00,28.2,28.0,29.82,ESE,117,3.0,5.0,97,0.00,,,0.00,weatherlink.com 1.10,2013-02-25 00:19:00,
2013-02-24 19:34:00,28.1,27.0,29.82,SE,128,2.0,3.0,97,0.00,,,0.00,weatherlink.com 1.10,2013-02-25 00:34:00,
2013-02-24 19:49:00,28.2,28.0,29.82,SE,124,2.0,2.0,97,0.00,,,0.00,weatherlink.com 1.10,2013-02-25 00:49:00,
2013-02-24 20:04:00,28.3,28.0,29.83,ESE,104,2.0,3.0,97,0.00,,,0.00,weatherlink.com 1.10,2013-02-25 01:04:00,
2013-02-24 20:19:00,28.4,28.0,29.83,ESE,115,1.0,4.0,97,0.00,,,0.00,weatherlink.com 1.10,2013-02-25 01:19:00,
2013-02-24 20:34:00,28.5,28.0,29.84,ESE,121,2.0,4.0,97,0.00,,,0.00,weatherlink.com 1.10,2013-02-25 01:34:00,
2013-02-24 20:49:00,28.6,28.0,29.84,ESE,117,2.0,3.0,97,0.00,,,0.00,weatherlink.com 1.10,2013-02-25 01:49:00,
2013-02-24 21:04:00,28.7,28.0,29.84,ESE,122,2.0,4.0,97,0.00,,,0.00,weatherlink.com 1.10,2013-02-25 02:04:00,
2013-02-24 21:19:00,28.7,28.0,29.85,ESE,115,2.0,3.0,97,0.00,,,0.00,weatherlink.com 1.10,2013-02-25 02:19:00,
2013-02-24 21:34:00,28.8,28.0,29.85,ESE,117,1.0,4.0,97,0.00,,,0.00,weatherlink.com 1.10,2013-02-25 02:34:00,
2013-02-24 21:49:00,28.7,28.0,29.85,ESE,115,0.0,3.0,97,0.00,,,0.00,weatherlink.com 1.10,2013-02-25 02:49:00,
2013-02-24 22:04:00,28.7,28.0,29.86,SE,127,2.0,5.0,97,0.00,,,0.00,weatherlink.com 1.10,2013-02-25 03:04:00,
2013-02-24 22:19:00,28.6,28.0,29.86,ESE,115,4.0,4.0,97,0.00,,,0.00,weatherlink.com 1.10,2013-02-25 03:19:00,
2013-02-24 22:35:00,28.5,28.0,29.86,SE,135,4.0,6.0,97,0.00,,,0.00,weatherlink.com 1.10,2013-02-25 03:35:00,
2013-02-24 22:50:00,28.4,27.0,29.87,SE,124,2.0,6.0,96,0.00,,,0.00,weatherlink.com 1.10,2013-02-25 03:50:00,
2013-02-24 23:05:00,28.3,27.0,29.87,ESE,108,2.0,6.0,96,0.00,,,0.00,weatherlink.com 1.10,2013-02-25 04:05:00,
2013-02-24 23:20:00,28.1,27.0,29.87,SE,135,3.0,6.0,96,0.00,,,0.00,weatherlink.com 1.10,2013-02-25 04:20:00,
2013-02-24 23:35:00,28.1,27.0,29.88,East,90,3.0,4.0,96,0.00,,,0.00,weatherlink.com 1.10,2013-02-25 04:35:00,
2013-02-24 23:50:00,28.0,27.0,29.88,ESE,120,3.0,7.0,96,0.00,,,0.00,weatherlink.com 1.10,2013-02-25 04:50:00,